Plattsmouth, NE

6:36 AM CST on December 08, 2016 (GMT -0600)
Plattsmouth Municipal

Weather History for KPMV - November, 2012

Change the Weather History Date:

Sunday, November 18, 2012

  Actual Average (KOFF) Record (KOFF)
Temperature  
Mean Temperature 52 °F -  
Max Temperature 62 °F 47 °F 73 °F (1999)
Min Temperature 41 °F 29 °F 5 °F (2014)
Degree Days  
Heating Degree Days 14    
Growing Degree Days 2 (Base 50)    
Moisture  
Dew Point 32 °F    
Average Humidity 48    
Maximum Humidity 67    
Minimum Humidity 32    
Precipitation  
Precipitation 0.00 in - - ()
Sea Level Pressure  
Sea Level Pressure 30.11 in    
Wind  
Wind Speed 14 mph (SSE)    
Max Wind Speed 22 mph    
Max Gust Speed 30 mph    
Visibility 10 miles    
Events Rain    
Averages and records for this station are not official NWS values.
T = Trace of Precipitation, MM = Missing Value Source: NWS Daily Summary

Daily Weather History Graph

Daily Weather History Graph

Search for Another Location

Airport or City:

Trip Planner

Search our weather history database for the weather conditions in past years. The results will help you decide how hot, cold, wet, or windy it might be!

Date:

Astronomy

Nov. 18, 2012 Rise Set
Actual Time 7:15 AM CST 5:02 PM CST
Civil Twilight 6:45 AM CST 5:32 PM CST
Nautical Twilight 6:12 AM CST 6:05 PM CST
Astronomical Twilight 5:39 AM CST 6:38 PM CST
Moon 11:42 AM CST (11/18) 10:23 PM CST (11/18)
Length of Visible Light 10h 46m
Length of Day
9h 47m
Waxing Crescent, 30% of the Moon is Illuminated
Nov 18
Waxing Crescent
Nov 20
First Quarter
Nov 28
Full
Dec 6
Last Quarter
Dec 13
New

Hourly Weather History & Observations

Time (CST) Temp. Windchill Dew Point Humidity Pressure Visibility Wind Dir Wind Speed Gust Speed Precip Events Conditions
12:15 AM 49.1 °F - 27.5 °F 43% 30.17 in 10.0 mi SSE 16.1 mph 23.0 mph N/A   Mostly Cloudy
12:35 AM 48.6 °F - 27.9 °F 45% 30.17 in 10.0 mi South 16.1 mph - N/A   Mostly Cloudy
12:55 AM 49.3 °F - 27.3 °F 43% 30.17 in 10.0 mi South 17.3 mph - N/A   Overcast
1:15 AM 49.5 °F - 27.0 °F 42% 30.16 in 10.0 mi SSE 18.4 mph - N/A   Overcast
1:55 AM 47.5 °F - 27.5 °F 46% 30.16 in 10.0 mi SSE 15.0 mph - N/A   Scattered Clouds
2:15 AM 47.1 °F - 27.9 °F 47% 30.16 in 10.0 mi SSE 13.8 mph 19.6 mph N/A   Scattered Clouds
2:35 AM 46.4 °F 41.1 °F 28.6 °F 50% 30.16 in 10.0 mi SSE 11.5 mph 19.6 mph N/A   Mostly Cloudy
2:55 AM 45.5 °F 39.6 °F 29.3 °F 53% 30.16 in 10.0 mi SSE 12.7 mph - N/A   Overcast
3:15 AM 45.3 °F 39.3 °F 29.8 °F 55% 30.16 in 10.0 mi SSE 12.7 mph - N/A   Mostly Cloudy
3:35 AM 45.5 °F 39.2 °F 29.7 °F 54% 30.15 in 10.0 mi SSE 13.8 mph - N/A   Overcast
3:55 AM 45.7 °F 39.5 °F 29.3 °F 53% 30.15 in 10.0 mi SSE 13.8 mph 18.4 mph N/A   Overcast
4:15 AM 44.8 °F 38.7 °F 29.3 °F 55% 30.15 in 10.0 mi SSE 12.7 mph - N/A   Mostly Cloudy
4:35 AM 43.9 °F 37.2 °F 29.3 °F 57% 30.14 in 10.0 mi SSE 13.8 mph - N/A   Scattered Clouds
4:55 AM 43.7 °F 37.3 °F 29.7 °F 58% 30.14 in 10.0 mi SSE 12.7 mph - N/A   Clear
5:15 AM 43.2 °F 36.2 °F 29.7 °F 59% 30.15 in 10.0 mi SSE 13.8 mph - N/A   Clear
5:35 AM 42.8 °F 35.4 °F 29.3 °F 59% 30.14 in 10.0 mi SSE 15.0 mph - N/A   Clear
5:55 AM 42.8 °F 35.8 °F 29.7 °F 60% 30.14 in 10.0 mi SSE 13.8 mph - N/A   Clear
6:15 AM 42.3 °F 35.5 °F 29.8 °F 61% 30.14 in 10.0 mi SSE 12.7 mph - N/A   Clear
6:35 AM 41.9 °F 34.6 °F 30.0 °F 63% 30.14 in 10.0 mi SSE 13.8 mph - N/A   Clear
6:55 AM 41.7 °F 34.8 °F 30.2 °F 64% 30.14 in 10.0 mi SSE 12.7 mph - N/A   Clear
7:15 AM 41.0 °F 33.9 °F 30.6 °F 66% 30.14 in 10.0 mi SE 12.7 mph - N/A   Clear
7:35 AM 41.0 °F 34.3 °F 30.9 °F 67% 30.15 in 10.0 mi SE 11.5 mph - N/A   Clear
7:55 AM 41.5 °F 35.0 °F 31.1 °F 66% 30.14 in 10.0 mi SE 11.5 mph - N/A   Clear
8:15 AM 42.4 °F 36.1 °F 31.1 °F 64% 30.14 in 10.0 mi SSE 11.5 mph - N/A   Clear
8:35 AM 42.8 °F 36.6 °F 31.1 °F 63% 30.15 in 10.0 mi SSE 11.5 mph - N/A   Clear
8:55 AM 44.1 °F 37.7 °F 31.5 °F 61% 30.15 in 10.0 mi SE 12.7 mph - N/A   Clear
9:15 AM 45.5 °F 39.6 °F 31.8 °F 59% 30.15 in 10.0 mi SSE 12.7 mph - N/A   Clear
9:35 AM 47.8 °F - 31.8 °F 54% 30.15 in 10.0 mi SSE 13.8 mph 18.4 mph N/A   Clear
9:55 AM 48.7 °F - 31.8 °F 52% 30.15 in 10.0 mi SSE 10.4 mph - N/A   Clear
10:15 AM 52.3 °F - 31.1 °F 44% 30.15 in 10.0 mi South 13.8 mph 18.4 mph N/A   Clear
10:35 AM 54.9 °F - 30.2 °F 39% 30.14 in 10.0 mi SSE 16.1 mph - N/A   Clear
10:55 AM 56.5 °F - 30.0 °F 36% 30.14 in 10.0 mi SSE 12.7 mph - N/A   Clear
11:15 AM 58.3 °F - 30.4 °F 35% 30.13 in 10.0 mi South 17.3 mph 20.7 mph N/A   Clear
11:35 AM 59.9 °F - 30.2 °F 33% 30.13 in 10.0 mi South 18.4 mph 23.0 mph N/A   Clear
11:55 AM 59.2 °F - 30.0 °F 33% 30.11 in 10.0 mi South 15.0 mph - N/A   Clear
12:15 PM 58.8 °F - 30.0 °F 34% 30.10 in 10.0 mi South 17.3 mph 20.7 mph N/A   Clear
12:35 PM 60.1 °F - 30.6 °F 33% 30.09 in 10.0 mi South 12.7 mph 18.4 mph N/A   Clear
12:55 PM 60.3 °F - 30.9 °F 33% 30.09 in 10.0 mi SSE 12.7 mph - N/A   Clear
1:15 PM 61.2 °F - 31.1 °F 32% 30.08 in 10.0 mi SSE 15.0 mph - N/A   Clear
1:35 PM 60.8 °F - 31.1 °F 33% 30.07 in 10.0 mi SSE 12.7 mph 19.6 mph N/A   Clear
1:55 PM 60.3 °F - 31.5 °F 34% 30.07 in 10.0 mi SSE 13.8 mph - N/A   Clear
2:15 PM 60.8 °F - 32.0 °F 34% 30.06 in 10.0 mi SSE 10.4 mph - N/A   Clear
2:35 PM 60.8 °F - 32.0 °F 34% 30.06 in 10.0 mi SE 9.2 mph - N/A   Clear
2:55 PM 62.1 °F - 32.5 °F 33% 30.05 in 10.0 mi SSE 11.5 mph - N/A   Scattered Clouds
3:15 PM 61.9 °F - 32.5 °F 33% 30.04 in 10.0 mi SSE 17.3 mph - N/A   Scattered Clouds
3:35 PM 61.0 °F - 32.9 °F 35% 30.04 in 10.0 mi SSE 11.5 mph - N/A   Clear
3:55 PM 59.9 °F - 33.6 °F 37% 30.06 in 10.0 mi SSE 13.8 mph 20.7 mph N/A   Clear
4:15 PM 59.2 °F - 34.0 °F 39% 30.06 in 10.0 mi SSE 11.5 mph - N/A   Mostly Cloudy
4:35 PM 59.0 °F - 34.0 °F 39% 30.06 in 10.0 mi SSE 18.4 mph 24.2 mph N/A   Scattered Clouds
4:55 PM 58.5 °F - 34.5 °F 41% 30.06 in 10.0 mi SE 16.1 mph 19.6 mph N/A   Clear
5:15 PM 58.1 °F - 34.7 °F 41% 30.06 in 10.0 mi SE 12.7 mph 18.4 mph N/A   Clear
5:35 PM 57.4 °F - 35.2 °F 43% 30.06 in 10.0 mi SE 12.7 mph - N/A   Mostly Cloudy
5:55 PM 57.7 °F - 34.7 °F 42% 30.06 in 10.0 mi SE 17.3 mph 24.2 mph N/A   Overcast
6:15 PM 57.6 °F - 34.7 °F 42% 30.07 in 10.0 mi SE 17.3 mph 25.3 mph N/A   Mostly Cloudy
6:35 PM 57.6 °F - 34.9 °F 43% 30.06 in 10.0 mi SSE 21.9 mph 28.8 mph N/A   Mostly Cloudy
6:55 PM 57.2 °F - 35.8 °F 45% 30.07 in 10.0 mi SSE 17.3 mph 24.2 mph N/A   Mostly Cloudy
7:15 PM 55.8 °F - 37.9 °F 51% 30.06 in 10.0 mi SSE 18.4 mph 24.2 mph N/A Rain Light Rain
7:35 PM 55.6 °F - 38.1 °F 52% 30.06 in 10.0 mi SSE 18.4 mph 25.3 mph N/A Rain Light Rain
7:55 PM 55.6 °F - 38.3 °F 52% 30.07 in 10.0 mi SSE 19.6 mph 25.3 mph N/A Rain Light Rain
8:15 PM 55.0 °F - 38.1 °F 53% 30.06 in 10.0 mi SSE 16.1 mph 25.3 mph N/A   Light Drizzle
8:35 PM 55.6 °F - 36.9 °F 49% 30.05 in 10.0 mi SSE 20.7 mph 29.9 mph N/A   Mostly Cloudy
8:55 PM 54.9 °F - 37.6 °F 52% 30.07 in 10.0 mi SSE 15.0 mph 24.2 mph N/A Rain Light Rain
9:15 PM 54.7 °F - 37.6 °F 53% 30.07 in 10.0 mi SSE 12.7 mph - N/A   Mostly Cloudy
9:35 PM 54.5 °F - 37.8 °F 53% 30.08 in 10.0 mi SSE 12.7 mph - N/A   Overcast
9:55 PM 54.3 °F - 37.4 °F 53% 30.08 in 10.0 mi SSE 13.8 mph 18.4 mph N/A   Mostly Cloudy
10:35 PM 53.6 °F - 36.5 °F 52% 30.07 in 10.0 mi SSE 10.4 mph 17.3 mph N/A   Mostly Cloudy
10:55 PM 53.1 °F - 36.3 °F 53% 30.06 in 10.0 mi SSE 11.5 mph - N/A   Scattered Clouds
11:15 PM 52.7 °F - 36.1 °F 53% 30.06 in 10.0 mi SSE 10.4 mph - N/A   Clear
11:55 PM 51.8 °F - 36.3 °F 56% 30.05 in 10.0 mi SSE 13.8 mph - N/A   Clear